This is the latest recevied weather packets stored in our database for station/object K5RWS. If no packets are shown the sender has not sent any weather packets the latest 10 day(s).
| Time | Temp. | Humidity | Pressure | Rain* | Wind** | Luminosity | Snow |
|---|---|---|---|---|---|---|---|
| 1777402418 | 20° C | 14% | 1020.3 hPa | 0 mm | - | 767 W/m² | - |
| 1777402117 | 20° C | 15% | 1020.4 hPa | 0 mm | - | 766 W/m² | - |
| 1777401812 | 19.44° C | 14% | 1020.4 hPa | 0 mm | - | 765 W/m² | - |
| 1777401511 | 18.89° C | 16% | 1020.6 hPa | 0 mm | - | 765 W/m² | - |
| 1777401207 | 19.44° C | 15% | 1020.7 hPa | 0 mm | - | 762 W/m² | - |
| 1777400903 | 19.44° C | 15% | 1020.6 hPa | 0 mm | - | 761 W/m² | - |
| 1777400599 | 19.44° C | 16% | 1020.8 hPa | 0 mm | - | 757 W/m² | - |
| 1777400297 | 19.44° C | 15% | 1020.8 hPa | 0 mm | - | 755 W/m² | - |
| 1777399993 | 18.33° C | 16% | 1020.8 hPa | 0 mm | - | 754 W/m² | - |
| 1777399690 | 18.33° C | 16% | 1020.9 hPa | 0 mm | - | 749 W/m² | - |
| 1777399387 | 18.33° C | 16% | 1020.8 hPa | 0 mm | - | 744 W/m² | - |
| 1777399085 | 18.33° C | 13% | 1021.4 hPa | 0 mm | - | 741 W/m² | - |
| 1777398782 | 18.89° C | 13% | 1021 hPa | 0 mm | - | 737 W/m² | - |
| 1777398479 | 18.33° C | 12% | 1021 hPa | 0 mm | - | 732 W/m² | - |
| 1777398175 | 17.78° C | 13% | 1021.1 hPa | 0 mm | - | 728 W/m² | - |
| 1777397872 | 17.78° C | 13% | 1021.1 hPa | 0 mm | - | 720 W/m² | - |
| 1777397567 | 17.78° C | 13% | 1021.1 hPa | 0 mm | - | 714 W/m² | - |
| 1777397264 | 18.33° C | 13% | 1021.1 hPa | 0 mm | - | 708 W/m² | - |
| 1777396961 | 17.78° C | 14% | 1021 hPa | 0 mm | - | 702 W/m² | - |
| 1777396658 | 17.78° C | 14% | 1021.1 hPa | 0 mm | - | 694 W/m² | - |
| 1777396354 | 17.78° C | 14% | 1021.3 hPa | 0 mm | - | 686 W/m² | - |
| 1777396051 | 17.78° C | 14% | 1021.3 hPa | 0 mm | - | 678 W/m² | - |
| 1777395751 | 17.78° C | 14% | 1021.4 hPa | 0 mm | - | 669 W/m² | - |
| 1777395446 | 17.78° C | 15% | 1021.6 hPa | 0 mm | - | 660 W/m² | - |
| 1777395145 | 16.67° C | 16% | 1021.7 hPa | 0 mm | - | 651 W/m² | - |
* Rain latest hour (hover to see other rain measurements)
** Current wind speed in m/s (hover to see current wind gust speed)